Palacios, TX

7:56 AM CDT on July 23, 2017 (GMT -0500)
Palacios Municipal

Weather History for KPSX - June, 2014

Change the Weather History Date:

Monday, June 9, 2014

  Actual Average Record
Temperature  
Mean Temperature 81 °F -  
Max Temperature 88 °F 87 °F 94 °F (1943)
Min Temperature 75 °F 74 °F 65 °F (1986)
Cooling Degree Days 16    
Growing Degree Days 31 (Base 50)    
Moisture  
Dew Point 74 °F    
Average Humidity 80    
Maximum Humidity 94    
Minimum Humidity 63    
Precipitation  
Precipitation 0.60 in - - ()
Sea Level Pressure  
Sea Level Pressure 29.83 in    
Wind  
Wind Speed 15 mph (SSE)    
Max Wind Speed 24 mph    
Max Gust Speed 31 mph    
Visibility 9 miles    
Events Fog , Rain , Thunderstorm    
Averages and records for this station are not official NWS values.
T = Trace of Precipitation, MM = Missing Value Source: NWS Daily Summary

Daily Weather History Graph

Daily Weather History Graph

Search for Another Location

Airport or City:

Trip Planner

Search our weather history database for the weather conditions in past years. The results will help you decide how hot, cold, wet, or windy it might be!

Date:

Astronomy

Jun. 09, 2014 Rise Set
Actual Time 6:26 AM CDT 8:22 PM CDT
Civil Twilight 5:59 AM CDT 8:49 PM CDT
Nautical Twilight 5:27 AM CDT 9:21 PM CDT
Astronomical Twilight 4:52 AM CDT 9:56 PM CDT
Moon 4:58 PM CDT (6/9) 3:37 AM CDT (6/9)
Length of Visible Light 14h 49m
Length of Day
13h 56m
Waxing Gibbous, 85% of the Moon is Illuminated
Jun 9
Waxing Gibbous
Jun 12
Full
Jun 19
Last Quarter
Jun 27
New
Jul 5
First Quarter

Hourly Weather History & Observations

Time (CDT) Temp. Heat Index Dew Point Humidity Pressure Visibility Wind Dir Wind Speed Gust Speed Precip Events Conditions
12:22 AM 82.0 °F 87.9 °F 73.9 °F 76% 29.87 in 10.0 mi South 13.8 mph - N/A   Scattered Clouds
12:44 AM 82.0 °F 88.6 °F 75.0 °F 79% 29.88 in 10.0 mi South 12.7 mph - N/A   Mostly Cloudy
12:53 AM 82.0 °F 88.6 °F 75.0 °F 79% 29.88 in 10.0 mi South 11.5 mph - N/A   Mostly Cloudy
1:15 AM 81.0 °F 86.2 °F 73.9 °F 79% 29.88 in 10.0 mi South 15.0 mph 20.7 mph N/A   Partly Cloudy
1:53 AM 81.0 °F 86.7 °F 75.0 °F 82% 29.86 in 10.0 mi South 13.8 mph - N/A   Scattered Clouds
2:18 AM 81.0 °F 86.7 °F 75.0 °F 82% 29.86 in 10.0 mi SSE 12.7 mph - N/A   Mostly Cloudy
2:30 AM 81.0 °F 86.2 °F 73.9 °F 79% 29.85 in 10.0 mi South 12.7 mph - N/A   Scattered Clouds
2:38 AM 81.0 °F 86.7 °F 75.0 °F 82% 29.85 in 10.0 mi South 13.8 mph - N/A   Mostly Cloudy
2:53 AM 81.0 °F 86.7 °F 75.0 °F 82% 29.84 in 10.0 mi South 12.7 mph - N/A   Mostly Cloudy
3:10 AM 81.0 °F 86.7 °F 75.0 °F 82% 29.83 in 10.0 mi SSE 15.0 mph - N/A   Scattered Clouds
3:53 AM 81.0 °F 86.2 °F 73.9 °F 79% 29.82 in 10.0 mi South 15.0 mph 23.0 mph N/A   Scattered Clouds
4:53 AM 81.0 °F 86.7 °F 75.0 °F 82% 29.82 in 10.0 mi South 15.0 mph - N/A   Scattered Clouds
5:09 AM 81.0 °F 86.7 °F 75.0 °F 82% 29.81 in 10.0 mi South 20.7 mph 27.6 mph N/A   Mostly Cloudy
5:17 AM 81.0 °F 86.7 °F 75.0 °F 82% 29.81 in 10.0 mi SSE 16.1 mph 27.6 mph N/A   Mostly Cloudy
5:53 AM 81.0 °F 86.2 °F 73.9 °F 79% 29.83 in 10.0 mi South 16.1 mph 23.0 mph N/A   Mostly Cloudy
6:00 AM 81.0 °F 86.2 °F 73.9 °F 79% 29.82 in 10.0 mi South 16.1 mph - N/A   Scattered Clouds
6:53 AM 81.0 °F 86.7 °F 75.0 °F 82% 29.82 in 9.0 mi South 15.0 mph 24.2 mph N/A   Mostly Cloudy
7:28 AM 82.0 °F 87.9 °F 73.9 °F 76% 29.82 in 10.0 mi South 18.4 mph 25.3 mph N/A   Mostly Cloudy
7:53 AM 82.0 °F 87.9 °F 73.9 °F 76% 29.82 in 10.0 mi South 18.4 mph 24.2 mph N/A   Scattered Clouds
8:53 AM 84.9 °F 92.1 °F 73.9 °F 69% 29.83 in 10.0 mi SSE 20.7 mph 28.8 mph N/A   Mostly Cloudy
9:41 AM 84.0 °F 91.2 °F 73.9 °F 72% 29.83 in 10.0 mi South 20.7 mph 27.6 mph N/A   Mostly Cloudy
9:53 AM 84.2 °F 90.9 °F 73.4 °F 70% 29.84 in 10.0 mi South 24.2 mph 31.1 mph N/A   Overcast
10:18 AM 84.9 °F 91.4 °F 73.0 °F 67% 29.85 in 10.0 mi South 17.3 mph 29.9 mph N/A   Mostly Cloudy
10:53 AM 86.0 °F 93.8 °F 73.9 °F 67% 29.86 in 10.0 mi South 20.7 mph 26.5 mph N/A   Scattered Clouds
12:53 PM 87.1 °F 94.5 °F 73.0 °F 63% 29.84 in 10.0 mi South 19.6 mph 31.1 mph N/A   Scattered Clouds
2:53 PM 82.4 °F 88.2 °F 73.4 °F 74% 29.84 in 4.0 mi South 12.7 mph - N/A Rain , Thunderstorm Light Rain
2:56 PM 82.0 °F 87.9 °F 73.9 °F 76% 29.84 in 1.8 mi SSW 10.4 mph - 0.06 in Rain , Thunderstorm Heavy Rain
3:08 PM 79.0 °F - 73.9 °F 84% 29.85 in 2.0 mi SSW 4.6 mph - 0.13 in Rain , Thunderstorm Heavy Thunderstorms and Rain
3:17 PM 79.0 °F - 75.9 °F 90% 29.86 in 1.0 mi South 15.0 mph 21.9 mph 0.31 in Rain , Thunderstorm Heavy Thunderstorms and Rain
3:24 PM 75.9 °F - 73.9 °F 94% 29.86 in 0.5 mi SSE 20.7 mph 29.9 mph 0.59 in Fog , Rain , Thunderstorm Heavy Thunderstorms and Rain
3:30 PM 75.9 °F - 73.9 °F 94% 29.85 in 1.0 mi SE 17.3 mph 29.9 mph 0.60 in Rain , Thunderstorm Heavy Thunderstorms and Rain
3:34 PM 75.9 °F - 73.0 °F 91% 29.85 in 3.0 mi SE 16.1 mph 24.2 mph 0.60 in Rain , Thunderstorm Light Thunderstorms and Rain
3:45 PM 75.9 °F - 73.9 °F 94% 29.84 in 10.0 mi SE 13.8 mph - 0.60 in Thunderstorm Thunderstorm
3:53 PM 75.9 °F - 73.9 °F 94% 29.82 in 10.0 mi SE 12.7 mph - 0.60 in Thunderstorm Thunderstorm
4:02 PM 77.0 °F - 73.9 °F 90% 29.81 in 10.0 mi SE 12.7 mph - N/A Thunderstorm Partly Cloudy
4:09 PM 80.1 °F 85.1 °F 75.0 °F 85% 29.80 in 10.0 mi SSE 12.7 mph - N/A   Clear
4:53 PM 84.0 °F 92.6 °F 75.9 °F 76% 29.77 in 10.0 mi SE 18.4 mph 26.5 mph N/A   Clear
5:53 PM 84.9 °F 93.3 °F 75.0 °F 72% 29.78 in 10.0 mi South 18.4 mph 23.0 mph N/A   Scattered Clouds
6:53 PM 84.0 °F 91.9 °F 75.0 °F 74% 29.78 in 10.0 mi South 17.3 mph 23.0 mph N/A   Scattered Clouds
7:53 PM 82.0 °F 88.6 °F 75.0 °F 79% 29.80 in 10.0 mi South 11.5 mph - N/A   Scattered Clouds
8:12 PM 82.0 °F 88.6 °F 75.0 °F 79% 29.79 in 10.0 mi South 13.8 mph - N/A   Mostly Cloudy
8:53 PM 82.0 °F 88.6 °F 75.0 °F 79% 29.80 in 10.0 mi South 11.5 mph - N/A   Scattered Clouds
9:18 PM 82.0 °F 88.6 °F 75.0 °F 79% 29.80 in 10.0 mi North - - N/A   Mostly Cloudy
10:08 PM 81.0 °F 86.7 °F 75.0 °F 82% 29.81 in 10.0 mi South 12.7 mph - N/A   Scattered Clouds
10:53 PM 81.0 °F 86.7 °F 75.0 °F 82% 29.82 in 10.0 mi South 13.8 mph - N/A   Partly Cloudy
11:17 PM 81.0 °F 86.7 °F 75.0 °F 82% 29.82 in 10.0 mi South 15.0 mph 20.7 mph N/A   Mostly Cloudy
11:53 PM 81.0 °F 87.3 °F 75.9 °F 85% 29.82 in 9.0 mi South 13.8 mph 24.2 mph N/A   Mostly Cloudy